Вернуться в каталог

STARLINK-5521

АктивенСвязьVLEO
NORAD 56471·PAYLOAD·🇺🇸 United States

Запущен May 10, 2023 с Vandenberg Space Force Base

Loading…

Ближайшие Пролёты (ближайшие 24 часа)

TLE

СвежийSource: CelesTrak SupGP

Эпоха: Sep 14, 2026, 20:58 UTC

1 56471C 23064Z   26257.87409722  .00481150  00000+0  36362-1 0  2575
2 56471  70.0004   7.5283 0003126 273.9269 152.8284 15.02045498    10

Отслеживайте STARLINK-5521 в реальном времени с AllMySat

Download on the App Store